Torna al catalogo

DELTA 1 DEB

AttivoSSO
NORAD 10875·DEBRIS·🇺🇸 United States

Lanciato Jul 29, 1976 da Vandenberg Space Force Base

Loading…

Prossimi Passaggi (prossime 24 ore)

TLE

AggiornatoSource: Space-Track

Epoca: Sep 14, 2026, 08:16 UTC

1 10875U 76077DD  26257.34511076  .00000014  00000-0  40376-3 0  9995
2 10875 101.9888 211.8641 0033534  62.2972  92.4137 12.47083108280232

Traccia DELTA 1 DEB in tempo reale con AllMySat

Download on the App Store